Location: Indian Hills
(32.9760°N, 85.9450°W)
Time: 16:03:07
(UTC+00:00)

Cosmos 1140 Rocket - Pass Details

Date: 09 December 2019
Orbit: 744 x 768 km, 74.1° (Epoch: 27 January)

Event Time Altitude Azimuth Distance (km) Brightness Sun altitude
Rises 23:59:29 0° 182° (S) 3,167 6.9 -16.9°
Reaches altitude 10° 00:01:53 10° 177° (S) 2,247 6.1 -17.4°
Maximum altitude 00:06:46 50° 103° (ESE) 948 3.6 -18.4°
Enters shadow 00:08:46 32° 47° (NE) 1,264 4.1 -18.8°
